This is the latest recevied weather packets stored in our database for station/object DC4THF-13. If no packets are shown the sender has not sent any weather packets the latest 10 day(s).
| Time | Temp. | Humidity | Pressure | Rain* | Wind** | Luminosity | Snow |
|---|---|---|---|---|---|---|---|
| 1777771972 | 11.11° C | 62% | 1008.9 hPa | 0 mm | - | - | - |
| 1777771369 | 11.67° C | 61% | 1008.8 hPa | 0 mm | - | - | - |
| 1777770766 | 11.67° C | 61% | 1008.8 hPa | 0 mm | - | - | - |
| 1777770162 | 11.67° C | 62% | 1009 hPa | 0 mm | - | - | - |
| 1777769558 | 11.67° C | 62% | 1009.1 hPa | 0 mm | - | - | - |
| 1777768954 | 12.22° C | 62% | 1009.2 hPa | 0 mm | - | - | - |
| 1777768351 | 11.67° C | 64% | 1009.2 hPa | 0 mm | - | - | - |
| 1777767746 | 10.56° C | 68% | 1009.3 hPa | 0 mm | - | - | - |
| 1777767143 | 10.56° C | 70% | 1009.4 hPa | 0 mm | - | - | - |
| 1777766539 | 10.56° C | 70% | 1009.4 hPa | 0 mm | - | - | - |
| 1777765935 | 10.56° C | 71% | 1009.5 hPa | 0 mm | - | - | - |
| 1777765392 | 10° C | 71% | 1009.6 hPa | 0 mm | - | - | - |
| 1777764789 | 10° C | 71% | 1009.7 hPa | 0 mm | - | - | - |
| 1777764186 | 10° C | 71% | 1009.7 hPa | 0 mm | - | - | - |
| 1777763583 | 10° C | 71% | 1009.8 hPa | 0 mm | - | - | - |
| 1777762979 | 10° C | 71% | 1010 hPa | 0 mm | - | - | - |
| 1777762375 | 10° C | 71% | 1010.1 hPa | 0 mm | - | - | - |
| 1777761771 | 10° C | 71% | 1009.9 hPa | 0 mm | - | - | - |
| 1777761167 | 10.56° C | 71% | 1010.1 hPa | 0 mm | - | - | - |
| 1777760563 | 10° C | 70% | 1010.1 hPa | 0 mm | - | - | - |
| 1777759959 | 10.56° C | 69% | 1010.2 hPa | 0 mm | - | - | - |
| 1777759355 | 11.11° C | 69% | 1010.1 hPa | 0 mm | - | - | - |
| 1777758751 | 11.11° C | 68% | 1010.2 hPa | 0 mm | - | - | - |
| 1777758148 | 11.67° C | 68% | 1010.2 hPa | 0 mm | - | - | - |
| 1777757545 | 11.11° C | 67% | 1010.4 hPa | 0 mm | - | - | - |
* Rain latest hour (hover to see other rain measurements)
** Current wind speed in m/s (hover to see current wind gust speed)